Regional Weather Roundup
Issued by NWS

Home | Current Version | Previous Version | Graphics & Text | Print | Product List | Glossary On
Versions: 1 2 3 4 5 6 7 8 9 10 11 12 13 14 15 16 17 18 19 20 21 22 23 24 25 26 27
000
ASUS45 KCYS 220210
RWRWY

WYOMING REGIONAL WEATHER ROUNDUP
NATIONAL WEATHER SERVICE CHEYENNE WY
800 PM MDT THU SEP 21 2017

NOTE:  "FAIR" INDICATES FEW OR NO CLOUDS BELOW 12,000 FEET
WITH NO SIGNIFICANT WEATHER AND/OR OBSTRUCTIONS TO VISIBILITY.

WYZ001-220300-
YELLOWSTONE NATIONAL PARK

CITY           SKY/WX    TMP DP  RH WIND       PRES   REMARKS
LK YELLOWSTONE NOT AVBL
W YELLOWSTONE  NOT AVBL

$$
WYZ002>013-054>058-071-098>099-220300-
NORTHERN WYOMING

CITY           SKY/WX    TMP DP  RH WIND       PRES   REMARKS
JACKSON        LGT RAIN  38  37  97 N10       29.78R WCI  31
CODY           LGT RAIN  40  37  89 N12G17    29.87R WCI  33
GREYBULL       CLOUDY    47  40  76 NW18G24   29.79S
WORLAND        CLOUDY    48  41  76 NW10      29.80S
SHERIDAN       CLOUDY    46  43  89 W12       29.91R
BUFFALO        CLOUDY    46  38  73 N16       29.89R
GILLETTE       FAIR      52  37  56 N22G28    29.82R
HULETT         FAIR      55  39  54 NE12      29.84R
NEWCASTLE      FAIR      66  34  30 E6        29.71R

$$
WYZ014>020-022>026-101>103-220300-
CENTRAL WYOMING

CITY           SKY/WX    TMP DP  RH WIND       PRES   REMARKS
BIG PINEY      CLOUDY    50  44  80 W3        29.72R
PINEDALE       MOCLDY    45  43  93 W5        29.73R
DUBOIS         RAIN      43  41  93 CALM      29.76S
LANDER           N/A    N/A N/A N/A MISG      29.75R
RIVERTON       FAIR      47  38  71 N12       29.74R
CASPER         FAIR      55  38  52 NE12      29.78R
DOUGLAS        FAIR      65  37  35 NE22G29   29.71R

$$
WYZ021-027>030-104>119-220300-
SOUTHERN WYOMING

CITY           SKY/WX    TMP DP  RH WIND       PRES   REMARKS
EVANSTON       LGT RAIN  45  42  89 NW10      29.74R
KEMMERER         N/A     46  43  87 SW5       29.72S
FORT BRIDGER   CLOUDY    57  38  49 SW23G29   29.72S
ROCK SPRINGS   FAIR      61  22  22 S14       29.69R
DIXON          FAIR      67  17  14 S6        29.78S
RAWLINS        MOCLDY    63  22  20 SW10      29.77R
SARATOGA       FAIR      61  23  23 SW13G20   29.80S
LARAMIE        FAIR      59  21  23 SE8       29.82S
CHEYENNE       FAIR      67  24  19 E3        29.74S
TORRINGTON     FAIR      72  30  21 E16       29.62R
PINE BLUFFS    FAIR      72  32  23 E13G18    29.69S

$$




USA.gov is the U.S. government's official web portal to all federal, state and local government web resources and services.